Tracking 31011 objects as of 13-Jul-2025
HD Live streaming from Space Station
objects crossing your sky now

CZ-6A DEB

Track CZ-6A DEB now!
10-day predictions


NORAD ID: 58429
Int'l Code: 2022-151AHX
Perigee: 816.5 km
Apogee: 937.2 km
Inclination: 98.9 °
Period: 102.3 minutes
Semi major axis: 7247 km
RCS: Unknown
Launch date: November 11, 2022
Source: People's Republic of China (PRC)
Launch site: Taiyaun Space Center, China (TSC)

Note: This is SATELLITE DEBRIS
Your satellite tracking list
Your tracking list is empty




NASA's NSSDC Master Catalog

Two Line Element Set (TLE):
1 58429U 22151AHX 25188.92273837  .00001178  00000-0  70972-3 0  9999
2 58429  98.8541 181.8385 0083301 262.9974  96.1715 14.06987447115852
Source of the keplerian elements: AFSPC